This is the latest recevied weather packets stored in our database for station/object IT9CYW-10. If no packets are shown the sender has not sent any weather packets the latest 10 day(s).
| Time | Temp. | Humidity | Pressure | Rain* | Wind** | Luminosity | Snow |
|---|---|---|---|---|---|---|---|
| 1777672689 | 15° C | 61% | 1001.7 hPa | - | - | 0 W/m² | - |
| 1777671789 | 15° C | 60% | 1001.7 hPa | - | - | 0 W/m² | - |
| 1777670889 | 15° C | 58% | 1001.7 hPa | - | - | 0 W/m² | - |
| 1777669988 | 15° C | 61% | 1001.7 hPa | - | - | 0 W/m² | - |
| 1777669088 | 15° C | 62% | 1001.7 hPa | - | - | 0 W/m² | - |
| 1777668188 | 14.44° C | 65% | 1001.7 hPa | - | - | 0 W/m² | - |
| 1777667288 | 13.89° C | 65% | 1001.5 hPa | - | - | 0 W/m² | - |
| 1777666388 | 13.89° C | 67% | 1001.7 hPa | - | - | 0 W/m² | - |
| 1777664588 | 13.89° C | 64% | 1001.5 hPa | - | - | 0 W/m² | - |
| 1777663687 | 13.89° C | 63% | 1001.2 hPa | - | - | 0 W/m² | - |
| 1777662786 | 13.89° C | 63% | 1001.2 hPa | - | - | 0 W/m² | - |
| 1777661886 | 14.44° C | 61% | 1001 hPa | - | - | 0 W/m² | - |
| 1777660986 | 14.44° C | 59% | 1000.7 hPa | - | - | 0 W/m² | - |
| 1777660086 | 14.44° C | 60% | 1000.5 hPa | - | - | 0 W/m² | - |
| 1777659186 | 14.44° C | 59% | 1000.5 hPa | - | - | 0 W/m² | - |
| 1777658285 | 14.44° C | 59% | 1000.7 hPa | - | - | 2 W/m² | - |
| 1777657385 | 15° C | 60% | 1000.5 hPa | - | - | 10 W/m² | - |
| 1777655586 | 16.11° C | 60% | 999.9 hPa | - | - | 28 W/m² | - |
| 1777654686 | 16.11° C | 62% | 1000 hPa | - | - | 47 W/m² | - |
| 1777653786 | 16.67° C | 65% | 999.9 hPa | - | - | 55 W/m² | - |
| 1777652886 | 16.67° C | 64% | 999.7 hPa | - | - | 60 W/m² | - |
| 1777651986 | 16.67° C | 62% | 999.5 hPa | - | - | 81 W/m² | - |
| 1777651085 | 16.67° C | 64% | 999.7 hPa | - | - | 75 W/m² | - |
| 1777650185 | 16.67° C | 64% | 999.7 hPa | - | - | 86 W/m² | - |
| 1777649285 | 16.67° C | 62% | 999.5 hPa | - | - | 96 W/m² | - |
* Rain since midnight (hover to see other rain measurements)
** Current wind speed in m/s (hover to see current wind gust speed)